SCP
0 0 0 0 0 1 1 1 1 1 1 1 0 0 0 0 0 0 0 0 0 0 0 0 0 0 0 0 0 0 1 1 1 1 1 1 1 1
1 1 0 0 1 1 1 1 1 1 1 1 1 0 0 0 0 0 0 0 0 0 0 0 0 0 0 0 0 0 0 1 1 1 1 1 1 1
0 1 1 0 1 1 1 1 1 1 1 1 0 0 0 0 0 0 0 0 0 0 0 0 0 0 0 0 0 0 0 0 1 1 1 1 1 1
1 1 1 0 1 1 0 0 0 0 0 0 0 0 0 0 0 0 0 0 0 0 0 0 0 0 0 0 0 0 0 0 0 1 1 1 1 1
1 1 1 1 0 0 0 0 0 0 0 0 0 0 0 0 0 0 0 0 0 0 0 0 0 0 0 0 0 0 0 0 0 0 1 1 1 1
1 1 1 1 0 0 0 0 0 0 0 0 0 0 0 0 0 0 0 0 0 0 0 0 0 0 0 0 0 0 0 0 0 0 1 1 1 1
0 1 1 1 0 0 0 0 0 0 0 0 0 0 0 0 0 0 0 0 0 0 0 0 0 0 0 0 0 0 0 0 0 0 0 0 0 0
0 0 0 0 0 0 0 0 0 0 0 0 0 0 0 0 0 0 0 0 0 0 0 0 0 0 1 1 0 0 0 0 0 0 0 0 0 0
0 0 0 0 0 0 0 0 0 0 0 0 0 0 0 1 1 1 1 1 1 1 1 0 0 0 1 0 0 0 0 0 0 0 0 0 0 0
0 0 0 0 0 0 0 0 0 0 0 0 0 0 0 1 1 1 1 1 1 1 1 1 1 1 1 0 0 0 0 0 0 0 0 0 0 0
0 0 0 0 0 0 0 0 0 0 0 0 0 0 0 0 0 0 1 1 1 1 1 1 1 1 1 1 0 0 0 0 0 0 0 0 0 0
1 1 0 0 0 0 0 0 0 0 0 0 0 0 0 0 0 0 0 0 1 1 1 1 1 1 1 1 1 1 0 0 0 0 0 0 0 0
2 1 1 0 0 0 0 0 0 0 0 0 0 0 0 0 0 0 0 0 1 1 1 1 1 1 1 1 1 1 1 1 0 0 0 0 0 0
2 1 1 0 0 0 0 0 0 0 1 1 1 0 0 0 0 0 0 0 0 0 1 1 1 1 1 1 1 1 1 1 0 0 0 0 0 0
1 1 0 0 0 0 0 0 0 0 1 1 1 1 0 0 0 0 0 0 0 0 0 1 1 1 1 1 1 1 1 1 0 0 1 0 0 0
1 0 0 0 0 0 0 0 0 0 1 1 1 1 1 1 0 0 0 0 0 0 0 0 1 1 1 1 1 1 1 1 0 0 0 1 1 0
0 0 0 0 0 0 0 0 0 1 1 1 1 1 1 0 0 0 0 0 0 0 0 0 0 1 1 1 1 1 1 1 1 0 0 0 1 1
1 0 0 0 0 0 0 0 0 1 1 1 1 1 1 0 0 0 0 0 0 0 0 0 0 0 0 0 0 1 1 1 1 1 0 0 1 1
1 0 0 0 0 0 0 1 1 1 1 1 0 0 0 0 0 0 0 0 0 0 0 0 0 0 0 0 0 0 0 1 1 1 0 0 0 0
0 0 0 0 1 1 1 1 1 1 1 1 0 0 0 0 0 0 0 0 0 0 0 0 0 0 0 0 0 0 0 0 0 0 0 0 0 0
0 0 0 0 0 1 1 1 1 1 1 1 0 0 0 0 0 0 0 0 0 0 0 0 0 0 0 0 0 0 0 0 0 0 0 0 0 0
0 0 0 0 0 0 0 0 0 0 0 0 0 0 0 0 0 0 0 0 0 0 0 0 0 0 0 0 0 0 0 0 0 0 0 0 0 0
0 0 0 0 0 0 0 0 0 0 0 0 0 0 0 0 0 0 0 0 0 0 0 0 0 0 0 0 0 0 0 0 0 0 0 0 0 0
Wind_Speed
3 3 2 2 2 2 2 3 3 2 1 1 1 1 0 0 1 1 1 4 2 3 3 3 3 3 4 4 4 4 4 3 2 2 2 2 2 2
2 3 2 2 2 2 2 3 3 3 2 0 1 2 1 1 1 1 1 3 1 1 2 2 2 2 2 2 3 3 2 2 2 2 2 2 1 1
4 3 3 3 2 2 2 2 2 3 2 1 1 1 2 2 1 1 1 1 1 2 1 1 1 1 1 1 2 2 2 2 1 1 1 1 0 0
4 4 3 2 3 2 2 3 3 3 3 2 1 2 2 2 2 2 2 1 1 2 2 1 0 0 1 1 0 1 1 1 0 0 1 1 1 1
5 4 4 4 4 3 3 3 2 3 3 3 2 1 2 2 2 2 2 1 2 2 3 3 2 2 1 2 1 1 1 0 0 0 1 1 1 2
5 4 4 4 4 4 3 4 3 3 3 3 3 2 2 2 2 2 2 2 2 2 1 2 2 3 3 3 3 2 2 2 2 1 1 2 2 2
5 5 4 3 2 3 3 4 4 3 3 3 3 3 3 3 2 2 2 2 2 2 2 2 2 3 3 5 5 5 4 4 3 3 2 3 3 3
5 5 4 5 5 5 5 4 4 4 4 4 4 4 4 3 2 3 3 3 3 2 3 3 2 3 3 3 3 5 6 5 5 4 4 3 4 4
5 4 3 3 5 5 6 7 6 6 6 6 5 5 4 3 4 4 4 4 4 2 3 3 3 3 3 2 3 5 6 7 6 6 5 5 5 5
5 5 5 5 4 4 5 6 6 5 5 6 6 5 5 4 4 5 5 4 4 2 3 4 3 3 3 3 4 6 6 7 7 7 7 6 6 6
5 5 5 5 2 3 5 6 5 4 3 3 4 3 2 2 3 4 4 4 4 3 4 4 3 3 4 4 3 6 6 7 7 8 8 8 7 8
4 4 3 3 2 4 6 6 6 5 4 4 5 5 6 6 7 7 5 5 4 4 4 4 3 3 4 3 3 4 5 6 8 8 9 8 7 6
3 3 3 4 4 5 6 5 4 4 5 5 5 4 4 4 5 6 6 6 6 5 3 4 4 4 5 4 4 4 4 4 5 6 8 9 8 8
3 3 2 4 5 6 5 4 3 4 4 4 4 4 4 4 4 4 5 5 6 6 4 5 5 4 5 5 5 3 4 4 5 5 5 7 9 10
2 1 1 3 4 5 5 5 5 4 4 4 5 4 4 4 3 3 4 4 5 5 5 6 6 5 6 7 6 5 5 5 5 5 5 5 5 6
3 2 3 3 3 2 3 4 3 3 3 4 4 3 3 3 4 4 4 4 4 4 5 6 7 7 6 7 6 6 6 5 4 5 6 6 6 6
2 2 2 3 3 3 3 3 3 3 3 3 3 3 3 4 4 4 4 5 5 5 4 4 5 5 7 7 7 7 6 6 5 5 6 7 7 7
2 3 3 3 3 3 3 3 3 3 3 3 3 4 4 4 4 4 4 5 6 6 5 4 4 4 5 5 6 8 6 6 5 5 6 7 8 7
3 3 3 3 3 3 3 3 3 3 3 4 4 4 4 4 5 5 5 5 6 6 5 5 5 5 7 7 5 7 7 6 6 6 6 7 8 7
3 3 3 3 3 3 3 3 3 3 3 4 4 4 4 5 5 5 5 6 6 6 6 5 6 6 7 7 6 4 7 7 6 7 7 7 7 7
4 3 3 3 3 3 3 3 4 4 4 4 4 4 4 5 5 6 6 6 6 6 6 6 5 6 5 4 6 6 5 7 8 7 7 7 7 7
4 4 3 4 3 3 3 4 4 4 4 4 4 4 4 5 5 6 6 6 6 6 6 5 4 4 5 6 8 8 7 6 7 10 11 9 7 6
4 3 3 4 4 3 4 4 5 4 4 4 4 4 5 5 5 5 6 6 6 6 6 5 4 4 5 6 7 7 9 8 6 6 7 9 12 15
Wind_Direction
236 231 232 229 238 249 252 261 271 257 241 185 172 151 192 76 91 233 97 79 49 42 39 41 49 48 47 44 60 71 73 73 81 91 92 94 90 82
240 245 239 234 232 236 245 255 270 283 278 275 195 158 157 202 167 265 79 109 89 49 37 51 51 53 54 48 55 62 65 71 83 90 87 75 70 74
218 222 224 223 221 222 234 242 249 263 263 259 207 168 188 214 189 236 233 222 170 138 104 66 49 60 81 69 57 55 58 69 85 99 125 94 38 322
226 224 226 213 222 228 229 232 235 245 247 245 218 204 221 230 224 236 245 243 243 148 159 179 174 122 180 168 98 82 81 82 107 238 239 250 265 288
231 231 232 226 223 219 226 231 234 232 237 238 233 207 230 225 231 237 244 250 253 188 189 201 205 213 215 213 210 214 208 202 125 172 245 253 263 271
229 231 236 234 235 232 227 227 228 224 221 231 228 216 221 216 227 239 247 233 253 243 225 220 208 216 224 221 212 213 220 217 207 206 241 243 250 259
229 229 229 240 274 264 254 240 230 228 224 228 230 226 222 211 228 235 247 256 260 249 259 249 231 233 219 217 214 212 218 223 224 227 244 240 240 251
236 231 219 212 217 222 232 243 249 242 241 235 236 235 238 229 231 238 244 251 256 229 255 258 242 247 246 233 189 201 217 223 227 230 236 241 243 244
243 236 227 220 223 229 213 210 220 232 248 256 250 248 249 237 230 234 241 251 265 258 251 257 241 250 250 243 195 208 218 220 225 231 236 240 247 252
240 244 237 226 213 236 235 226 226 222 230 242 252 259 261 250 240 246 251 254 269 254 242 263 249 254 255 246 205 215 225 228 229 233 239 242 248 253
235 238 245 242 184 230 238 234 233 231 221 244 283 288 298 268 249 239 232 236 251 238 221 253 258 257 254 244 216 207 226 233 234 235 238 242 246 251
239 235 225 247 225 218 233 233 237 239 236 225 230 231 232 218 216 231 231 237 251 247 208 236 254 253 255 235 238 225 223 226 231 235 239 241 245 247
242 238 221 194 220 226 243 244 245 254 242 241 239 233 227 226 221 228 235 241 249 254 221 219 245 246 257 259 248 240 238 241 232 235 232 234 238 243
250 247 219 185 213 225 231 235 234 239 239 238 238 234 233 231 232 234 240 245 257 265 247 232 247 248 256 262 259 243 242 245 247 247 243 222 225 232
252 255 196 189 209 219 220 218 220 226 230 236 240 241 242 243 239 232 236 242 256 258 253 242 244 247 252 259 264 260 256 249 245 251 252 245 236 230
230 184 183 193 223 250 214 208 227 237 241 242 246 246 242 233 232 229 230 230 238 243 240 242 245 245 249 256 262 264 260 255 245 251 255 253 247 240
223 211 208 205 216 217 221 228 234 230 234 245 246 245 242 241 242 240 241 241 247 248 239 230 238 247 256 257 254 253 256 259 258 258 257 257 250 243
189 214 218 223 232 232 229 228 232 238 243 245 243 241 244 247 250 246 243 246 250 252 251 239 230 235 244 251 246 256 258 260 263 257 255 258 258 252
208 226 233 234 240 240 238 240 242 243 243 244 247 248 246 247 249 248 245 249 252 253 253 245 238 241 251 259 241 220 256 265 262 256 251 254 262 264
230 235 241 241 240 242 242 245 250 251 248 248 249 250 249 250 252 251 248 250 256 257 254 246 243 246 254 270 277 261 232 256 264 265 263 262 264 268
232 238 241 242 244 247 248 248 250 251 252 252 253 255 256 255 255 257 257 258 261 259 257 255 252 255 264 271 265 260 249 237 258 268 274 272 269 262
239 238 242 249 250 252 252 249 250 251 253 251 254 253 254 255 257 262 262 259 257 258 262 266 257 242 248 254 261 269 271 263 247 254 257 259 268 267
246 248 245 247 251 251 250 249 250 251 250 252 255 257 259 260 261 260 263 263 263 263 262 261 255 247 249 255 263 269 273 275 272 269 261 247 255 267